This is the latest recevied weather packets stored in our database for station/object K42C. If no packets are shown the sender has not sent any weather packets the latest 10 day(s).
| Time | Temp. | Humidity | Pressure | Rain* | Wind** | Luminosity | Snow |
|---|---|---|---|---|---|---|---|
| 1777971119 | 8.89° C | 84% | 966.4 hPa | 0 mm | 2.68 m/s, 336° | - | - |
| 1777970722 | 8.89° C | 84% | 966.3 hPa | 0 mm | 2.68 m/s, 0° | - | - |
| 1777970321 | 9.44° C | 84% | 966.1 hPa | 0 mm | 4.02 m/s, 3° | - | - |
| 1777969924 | 9.44° C | 86% | 965.9 hPa | 0 mm | 1.79 m/s, 352° | - | - |
| 1777969523 | 10° C | 87% | 965.7 hPa | 0 mm | 3.13 m/s, 25° | - | - |
| 1777969125 | 10° C | 87% | 965.5 hPa | 0 mm | 3.13 m/s, 308° | - | - |
| 1777968724 | 10.56° C | 85% | 965.3 hPa | 0 mm | 3.58 m/s, 329° | - | - |
| 1777968327 | 11.11° C | 80% | 965 hPa | 0 mm | 4.02 m/s, 349° | - | - |
| 1777967926 | 11.11° C | 74% | 964.9 hPa | 0 mm | 4.02 m/s, 305° | - | - |
| 1777967529 | 11.11° C | 70% | 964.7 hPa | 0 mm | 0.89 m/s, 309° | - | - |
| 1777967128 | 11.67° C | 67% | 964.4 hPa | 0 mm | 0.89 m/s, 284° | - | - |
| 1777966730 | 11.67° C | 66% | 964.3 hPa | 0 mm | 0 m/s | - | - |
| 1777966330 | 12.22° C | 64% | 964.1 hPa | 0 mm | 0 m/s | - | - |
| 1777965932 | 12.22° C | 63% | 963.9 hPa | 0 mm | 0.45 m/s, 266° | - | - |
| 1777965531 | 12.22° C | 63% | 963.9 hPa | 0 mm | 0 m/s | - | - |
| 1777965134 | 12.78° C | 63% | 963.8 hPa | 0 mm | 0 m/s | - | - |
| 1777964733 | 12.78° C | 63% | 963.9 hPa | 0 mm | 1.34 m/s, 270° | - | - |
| 1777964336 | 12.78° C | 63% | 963.9 hPa | 0 mm | 0 m/s | - | - |
| 1777963935 | 12.78° C | 62% | 963.8 hPa | 0 mm | 0 m/s | - | - |
| 1777963538 | 12.78° C | 62% | 963.7 hPa | 0 mm | 0 m/s | - | - |
| 1777963137 | 12.78° C | 62% | 963.7 hPa | 0 mm | 1.79 m/s, 300° | - | - |
| 1777962739 | 12.78° C | 63% | 963.8 hPa | 0 mm | 0.89 m/s, 294° | - | - |
| 1777962338 | 12.78° C | 64% | 963.7 hPa | 0 mm | 0 m/s | - | - |
| 1777961941 | 12.78° C | 66% | 963.7 hPa | 0 mm | 2.24 m/s, 297° | - | - |
| 1777961540 | 13.33° C | 68% | 963.6 hPa | 0 mm | 0 m/s | - | - |
* Rain latest hour (hover to see other rain measurements)
** Current wind speed in m/s (hover to see current wind gust speed)